Location: Kawakawa
(35.3830°S, 174.0670°E)
Time: 01:29:28
(UTC+13:00)

deb Explorer IX - All Passes

Search period start: 09 December 2019 00:00
Search period end: 19 December 2019 00:00
Orbit: 545 x 1105 km, 38.8° (Epoch: 08 December)

Date Brightness Start Highest point End Pass type
(mag) Time Alt. Az. Time Alt. Az. Time Alt. Az.
09 Dec - 05:10:23 10° NNW 05:15:22 32° NNE 05:19:44 10° E visible
09 Dec - 06:57:00 10° WNW 07:02:11 85° SSW 07:06:41 10° ESE daylight
09 Dec - 08:44:45 10° WSW 08:49:18 54° S 08:53:26 10° ESE daylight
09 Dec - 10:32:02 10° WSW 10:36:20 88° SSE 10:40:28 10° ENE daylight
09 Dec - 12:19:29 10° W 12:22:49 24° NNW 12:26:12 10° NNE daylight
10 Dec - 04:48:07 10° NNW 04:53:20 34° NNE 04:57:54 10° E visible
10 Dec - 06:34:51 10° WNW 06:40:13 84° SSW 06:44:49 10° ESE daylight
10 Dec - 08:22:40 10° WSW 08:27:22 54° S 08:31:33 10° ESE daylight
10 Dec - 10:10:02 10° WSW 10:14:25 90° SE 10:18:32 10° ENE daylight
10 Dec - 11:57:34 10° W 12:00:52 23° NNW 12:04:10 10° NNE daylight
11 Dec - 04:25:51 10° NW 04:31:18 36° NNE 04:36:01 10° E visible
11 Dec - 06:12:40 10° WNW 06:18:13 84° SSW 06:22:56 10° ESE daylight
11 Dec - 08:00:34 10° WSW 08:05:24 55° S 08:09:41 10° E daylight
11 Dec - 09:47:59 10° WSW 09:52:29 89° NNW 09:56:38 10° ENE daylight
11 Dec - 11:35:38 10° W 11:38:54 22° NW 11:42:08 10° NNE daylight
12 Dec - 04:03:33 10° NW 04:09:14 38° NNE 04:14:09 10° E visible
12 Dec - 05:50:29 10° WNW 05:56:12 83° SSW 06:01:03 10° ESE daylight
12 Dec - 07:38:26 10° WSW 07:43:27 56° S 07:47:49 10° E daylight
12 Dec - 09:25:56 10° WSW 09:30:32 87° NNW 09:34:43 10° ENE daylight
12 Dec - 11:13:40 10° W 11:16:57 22° NW 11:20:08 10° NNE daylight
13 Dec - 01:59:19 10° NNE 02:00:28 10° NE 02:01:35 10° NE visible
13 Dec - 03:41:16 10° NW 03:47:09 39° NNE 03:52:16 10° E visible
13 Dec - 05:28:16 10° WNW 05:34:10 82° SSW 05:39:11 10° ESE visible
13 Dec - 07:16:17 10° WSW 07:21:28 57° S 07:25:56 10° E daylight
13 Dec - 09:03:51 10° WSW 09:08:35 86° NNW 09:12:49 10° ENE daylight
13 Dec - 10:51:41 10° W 10:54:59 21° NW 10:58:08 10° NNE daylight
14 Dec - 01:36:23 10° NNE 01:38:20 11° NE 01:40:14 10° ENE visible
14 Dec - 03:18:58 10° NW 03:25:03 41° NNE 03:30:21 10° E visible
14 Dec - 05:06:02 10° WNW 05:12:07 81° SSW 05:17:16 10° ESE visible
14 Dec - 06:54:06 10° WSW 06:59:28 58° S 07:04:04 10° E daylight
14 Dec - 08:41:44 10° WSW 08:46:37 85° NNW 08:50:55 10° ENE daylight
14 Dec - 10:29:41 10° W 10:33:00 21° NW 10:36:10 10° NNE daylight
15 Dec - 01:13:41 10° NNE 01:16:12 12° NE 01:18:37 10° ENE visible
15 Dec - 02:56:39 10° NW 03:02:56 43° NNE 03:08:26 10° E visible
15 Dec - 04:43:47 10° WNW 04:50:04 81° SSW 04:55:22 10° ESE visible
15 Dec - 06:31:55 10° WSW 06:37:27 59° S 06:42:11 10° E daylight
15 Dec - 08:19:36 10° WSW 08:24:39 83° NNW 08:29:01 10° ENE daylight
15 Dec - 10:07:38 10° W 10:11:01 21° NW 10:14:12 10° NNE daylight
16 Dec - 00:51:05 10° NNE 00:54:02 13° NE 00:56:53 10° ENE visible
16 Dec - 02:34:20 10° NW 02:40:47 44° NNE 02:46:28 10° E visible
16 Dec - 04:21:31 10° WNW 04:27:59 80° SSW 04:33:27 10° ESE visible
16 Dec - 06:09:41 10° WSW 06:15:26 60° S 06:20:18 10° E daylight
16 Dec - 07:57:27 10° WSW 08:02:39 82° NNW 08:07:08 10° ENE daylight
16 Dec - 09:45:33 10° W 09:49:01 21° NW 09:52:14 10° NNE daylight
17 Dec - 00:28:34 10° NNE 00:31:52 14° NE 00:35:04 10° ENE night (unlit)
17 Dec - 02:12:01 10° NW 02:18:38 46° NNE 02:24:30 10° E visible
17 Dec - 03:59:15 10° WNW 04:05:52 80° SSW 04:11:31 10° ESE visible
17 Dec - 05:47:27 10° WSW 05:53:23 61° S 05:58:24 10° E daylight
17 Dec - 07:35:16 10° WSW 07:40:38 81° NNW 07:45:13 10° ENE daylight
17 Dec - 09:23:27 10° W 09:27:01 21° NW 09:30:17 10° NNE daylight
18 Dec - 00:06:05 10° N 00:09:41 14° NE 00:13:11 10° ENE night (unlit)
18 Dec - 01:49:43 10° NW 01:56:28 47° NNE 02:02:30 10° E visible
18 Dec - 03:36:58 10° WNW 03:43:45 80° SSW 03:49:33 10° ESE visible
18 Dec - 05:25:12 10° WSW 05:31:19 62° S 05:36:29 10° E visible
18 Dec - 07:13:03 10° WSW 07:18:36 80° NNW 07:23:19 10° ENE daylight
18 Dec - 09:01:20 10° W 09:05:00 21° NW 09:08:20 10° NNE daylight
18 Dec - 23:43:38 10° N 23:47:29 15° NE 23:51:15 10° ENE night (unlit)
